Date,TemperatureHighF,TemperatureAvgF,TemperatureLowF,DewpointHighF,DewpointAvgF,DewpointLowF,HumidityHigh,HumidityAvg,HumidityLow,PressureMaxIn,PressureMinIn,WindSpeedMaxMPH,WindSpeedAvgMPH,GustSpeedMaxMPH,PrecipitationSumIn
2013-1-1,22,14,7,12,6,2,84,70,45,0.00,40.00,18,10,21,0.00
2013-1-2,33,18,6,18,10,1,81,70,47,0.00,40.00,14,8,23,0.00
2013-1-3,29,24,14,26,19,9,93,80,58,0.00,40.00,21,13,32,0.00
2013-1-4,34,22,10,23,16,8,90,79,57,0.00,40.00,25,14,33,0.00
2013-1-5,36,28,17,33,26,16,97,91,68,0.00,40.00,20,11,27,0.00
2013-1-6,34,23,14,33,19,10,93,84,66,0.00,40.00,24,13,36,0.00
2013-1-7,41,26,11,27,19,9,93,79,43,0.00,40.00,27,11,38,0.00
2013-1-8,45,33,24,32,27,22,93,79,50,0.00,40.00,19,10,24,0.00
2013-1-9,47,37,26,32,26,20,92,69,38,0.00,40.00,30,14,39,0.00
2013-1-10,43,33,23,38,28,21,97,83,46,0.00,40.00,26,14,34,0.00
2013-1-11,50,46,39,48,45,38,97,96,89,0.00,40.00,22,14,32,0.00
2013-1-12,51,38,26,46,33,22,92,83,74,0.00,40.00,27,15,35,0.00
2013-1-13,26,18,11,23,14,5,93,83,74,0.00,40.00,20,13,28,0.00
2013-1-14,25,14,8,12,6,-100,85,74,48,0.00,40.00,14,7,18,0.00
2013-1-15,29,22,13,16,12,7,88,69,50,0.00,40.00,7,3,9,0.00
2013-1-16,35,25,15,31,18,9,89,74,52,0.00,40.00,25,11,34,0.00
2013-1-17,35,26,20,31,17,8,91,69,43,0.00,40.00,20,11,24,0.00
2013-1-18,42,31,17,30,23,14,90,73,55,0.00,40.00,31,14,45,0.00
2013-1-19,47,39,26,38,30,11,80,70,49,0.00,40.00,52,20,63,0.00
2013-1-20,26,16,11,13,5,2,70,62,56,0.00,40.00,34,16,51,0.00
2013-1-21,12,8,4,7,-2,-6,82,65,50,0.00,40.00,26,18,36,0.00
2013-1-22,12,5,-3,-1,-4,-8,78,64,52,0.00,40.00,19,11,26,0.00
2013-1-23,21,14,10,12,6,-1,84,71,58,0.00,40.00,29,10,38,0.00
2013-1-24,21,12,3,9,3,-4,72,65,54,0.00,40.00,22,12,30,0.00
2013-1-25,31,22,16,19,14,8,95,73,56,0.00,40.00,26,14,35,0.00
2013-1-26,28,18,6,17,9,3,86,69,42,0.00,40.00,13,6,18,0.00
2013-1-27,24,24,22,20,18,15,84,79,73,0.00,40.00,21,15,26,0.00
2013-1-28,45,41,38,45,40,38,98,97,97,0.00,40.00,21,9,26,0.00
2013-1-29,63,54,42,59,53,41,97,95,86,0.00,40.00,24,12,34,0.00
2013-1-30,49,32,18,48,30,12,97,93,77,0.00,40.00,26,16,37,0.00
2013-1-31,14,8,1,7,1,-6,78,71,66,0.00,40.00,29,21,39,0.00
2013-2-1,15,5,-3,11,-3,-9,84,70,62,0.00,40.00,21,13,28,0.00
2013-2-2,24,15,3,21,10,-3,92,81,64,0.00,40.00,24,10,29,0.00
2013-2-3,23,18,9,17,11,4,92,77,59,0.00,40.00,23,9,31,0.00
2013-2-4,27,21,10,22,17,5,92,85,77,0.00,40.00,19,12,24,0.00
2013-2-5,31,23,9,28,18,3,90,81,71,0.00,40.00,19,10,29,0.00
2013-2-6,41,30,17,32,24,13,93,79,60,0.00,40.00,19,10,24,0.00
2013-2-7,33,32,29,32,32,27,97,96,93,0.00,40.00,21,11,32,0.00
2013-2-8,29,23,16,28,20,13,97,87,78,0.00,40.00,24,13,32,0.00
2013-2-9,32,27,22,28,24,20,95,88,80,0.00,40.00,27,14,32,0.00
2013-2-10,45,37,27,44,35,26,97,93,63,0.00,40.00,29,20,39,0.00
2013-2-11,41,32,27,32,24,20,82,73,67,0.00,40.00,39,28,53,0.00
2013-2-12,31,27,24,24,21,19,92,79,64,0.00,40.00,21,10,29,0.00
2013-2-13,42,32,24,31,27,22,95,84,59,0.00,40.00,14,7,19,0.00
2013-2-14,39,35,32,32,29,23,90,78,59,0.00,40.00,24,14,34,0.00
2013-2-15,32,26,18,29,16,9,90,66,42,0.00,40.00,24,15,30,0.00
2013-2-16,22,16,9,9,6,3,79,65,52,0.00,40.00,19,12,29,0.00
2013-2-17,31,19,6,23,12,3,86,72,50,0.00,40.00,24,9,29,0.00
2013-2-18,50,36,25,45,31,20,97,82,60,0.00,40.00,37,20,46,0.00
2013-2-19,25,14,7,21,7,0,87,76,71,0.00,40.00,39,26,50,0.00
2013-2-20,20,12,4,11,5,-2,85,73,64,0.00,40.00,19,11,26,0.00
2013-2-21,28,21,12,25,18,9,96,87,81,0.00,40.00,30,13,39,0.00
2013-2-22,33,27,22,31,24,21,96,90,81,0.00,40.00,24,16,34,0.00
2013-2-23,28,22,15,22,17,12,92,81,69,0.00,40.00,18,11,24,0.00
2013-2-24,36,24,12,22,17,10,93,75,44,0.00,40.00,11,5,14,0.00
2013-2-25,41,31,22,30,25,19,92,79,58,0.00,40.00,19,9,25,0.00
2013-2-26,34,32,31,31,30,27,98,89,73,0.00,40.00,33,21,42,0.00
2013-2-27,33,31,29,30,29,28,97,94,84,0.00,40.00,20,15,25,0.00
2013-2-28,35,32,28,30,28,21,96,85,72,0.00,40.00,19,14,24,0.00
2013-3-1,28,25,23,22,20,16,86,81,74,0.00,40.00,24,16,32,0.00
2013-3-2,27,19,11,17,12,5,81,72,53,0.00,40.00,15,11,23,0.00
2013-3-3,34,19,8,14,8,4,88,64,32,0.00,40.00,9,3,9,0.00
2013-3-4,30,26,16,25,20,7,84,78,67,0.00,40.00,26,16,32,0.00
2013-3-5,34,30,25,33,29,24,97,94,81,0.00,40.00,26,13,32,0.00
2013-3-6,31,27,24,24,23,21,97,83,69,0.00,40.00,26,16,35,0.00
2013-3-7,38,28,17,24,20,13,90,74,48,0.00,40.00,11,4,14,0.00
2013-3-8,36,26,15,29,22,14,95,84,71,0.00,40.00,21,12,23,0.00
2013-3-9,37,34,27,35,31,24,95,90,85,0.00,40.00,27,18,33,0.00
2013-3-10,43,38,36,43,38,34,98,97,89,0.00,40.00,21,13,29,0.00
2013-3-11,42,34,31,41,33,27,97,95,85,0.00,40.00,21,12,29,0.00
2013-3-12,36,30,26,29,23,17,88,78,63,0.00,40.00,28,19,39,0.00
2013-3-13,33,27,22,19,16,10,80,64,39,0.00,40.00,24,16,31,0.00
2013-3-14,34,28,22,32,24,17,97,84,67,0.00,40.00,19,9,23,0.00
2013-3-15,40,34,30,35,32,28,97,91,77,0.00,40.00,19,7,24,0.00
2013-3-16,33,31,29,32,27,20,97,87,69,0.00,40.00,19,12,24,0.00
2013-3-17,35,30,25,26,22,15,81,71,63,0.00,40.00,19,14,25,0.00
2013-3-18,34,29,20,33,25,10,96,86,63,0.00,40.00,37,18,49,0.00
2013-3-19,31,23,15,15,12,7,72,62,49,0.00,40.00,37,26,44,0.00
2013-3-30,57,51,46,42,37,-100,84,64,51,0.00,40.00,22,12,32,0.00
2013-3-31,56,45,34,43,35,24,97,71,39,0.00,40.00,29,15,39,0.00
2013-4-1,40,32,26,24,18,14,78,57,36,0.00,40.00,21,13,29,0.00
2013-4-2,44,32,23,22,17,12,82,57,29,0.00,40.00,18,11,26,0.00
2013-4-3,49,35,25,25,19,15,78,56,29,0.00,40.00,11,6,16,0.00
2013-4-4,59,42,26,36,25,19,78,55,28,0.00,40.00,14,8,19,0.00
2013-4-5,55,42,32,36,28,20,89,60,28,0.00,40.00,24,10,30,0.00
2013-4-6,66,49,33,49,34,20,93,59,34,0.00,40.00,36,19,47,0.00
2013-4-7,63,50,39,49,40,37,93,73,39,0.00,40.00,26,11,34,0.00
2013-4-8,46,42,40,46,39,37,97,90,86,0.00,40.00,21,18,28,0.00
2013-4-9,68,53,42,59,50,40,96,89,72,0.00,40.00,28,14,32,0.00
2013-4-10,42,40,36,41,40,36,98,97,95,0.00,40.00,33,-3,72,0.00
2013-4-11,49,42,39,47,41,35,98,96,87,0.00,40.00,41,17,51,0.00
2013-4-12,42,38,35,37,33,29,94,85,69,0.00,40.00,25,15,33,0.00
2013-4-13,46,38,33,35,29,25,89,70,47,0.00,40.00,24,13,34,0.00
2013-4-14,73,52,38,50,40,33,86,66,40,0.00,40.00,34,21,41,0.00
2013-4-15,63,54,42,55,49,40,97,84,53,0.00,40.00,26,12,41,0.00
2013-4-16,53,45,35,40,35,31,96,71,45,0.00,40.00,18,9,26,0.00
2013-4-17,48,43,39,47,40,34,97,88,73,0.00,40.00,29,18,39,0.00
2013-4-18,60,51,37,59,49,32,97,94,77,0.00,40.00,33,19,44,0.00
2013-4-19,38,36,34,32,28,26,82,74,67,0.00,40.00,36,26,46,0.00
2013-4-20,46,37,30,30,25,18,92,64,33,0.00,40.00,18,9,26,0.00
2013-4-21,54,42,31,37,31,26,86,67,48,0.00,40.00,29,19,37,0.00
2013-4-22,66,51,35,43,37,33,93,63,35,0.00,40.00,23,15,32,0.00
2013-4-26,66,58,42,47,42,36,85,56,42,0.00,40.00,25,16,32,0.00
2013-4-27,67,55,41,50,44,39,97,70,36,0.00,40.00,19,9,26,0.00
2013-4-28,69,58,51,54,50,47,95,78,50,0.00,40.00,9,4,14,0.00
2013-4-29,74,61,49,59,52,48,97,76,43,0.00,40.00,28,14,37,0.00
2013-4-30,85,73,57,59,54,49,97,57,29,0.00,40.00,24,16,34,0.00
2013-5-1,84,71,56,60,53,46,96,60,29,0.00,40.00,18,10,28,0.00
2013-5-2,62,54,46,56,50,42,97,86,71,0.00,40.00,21,13,29,0.00
2013-5-3,54,46,41,53,45,40,97,97,95,0.00,40.00,21,16,29,0.00
2013-5-4,73,59,50,57,52,49,96,79,47,0.00,40.00,21,12,29,0.00
2013-5-5,76,62,50,51,46,39,97,64,28,0.00,40.00,22,10,35,0.00
2013-5-6,77,63,51,47,42,35,81,51,24,0.00,40.00,17,10,23,0.00
2013-5-7,82,64,48,53,43,39,80,50,24,0.00,40.00,10,5,15,0.00
2013-5-8,83,67,48,51,46,39,93,54,24,0.00,40.00,10,5,16,0.00
2013-5-9,71,62,58,62,57,50,96,83,60,0.00,40.00,19,9,29,0.00
2013-5-10,60,49,45,59,45,-100,96,91,80,0.00,40.00,21,12,27,0.00
2013-5-11,59,50,40,50,35,-100,96,64,26,0.00,40.00,36,16,46,0.00
2013-5-12,56,46,36,28,25,22,66,45,26,0.00,40.00,23,14,34,0.00
2013-5-13,68,53,35,38,28,23,73,42,19,0.00,40.00,13,6,21,0.00
2013-5-14,95,72,52,58,48,38,71,46,19,0.00,40.00,20,12,30,0.00
2013-5-15,85,76,64,58,49,41,51,39,23,0.00,40.00,27,13,34,0.00
2013-5-16,87,65,55,50,26,-100,71,42,24,0.00,40.00,20,9,27,0.00
2013-5-17,81,66,58,64,46,-100,85,61,45,0.00,40.00,25,10,30,0.00
2013-5-18,84,69,56,64,57,51,95,70,42,0.00,40.00,17,12,25,0.00
2013-5-19,92,75,60,65,60,54,96,66,35,0.00,40.00,28,14,37,0.00
2013-5-20,85,75,63,70,60,54,97,62,36,0.00,40.00,27,15,35,0.00
2013-5-21,80,70,62,64,60,54,97,73,43,0.00,40.00,24,13,34,0.00
2013-5-22,71,65,59,64,59,52,96,82,51,0.00,40.00,19,9,26,0.00
2013-5-23,60,55,44,57,50,39,97,84,61,0.00,40.00,24,12,31,0.00
2013-5-24,67,51,36,41,36,33,93,60,32,0.00,40.00,14,8,19,0.00
2013-5-25,59,51,45,46,41,36,88,71,51,0.00,40.00,17,9,24,0.00
2013-5-26,60,53,43,57,48,39,97,83,68,0.00,40.00,21,14,27,0.00
2013-5-27,67,61,55,63,59,54,97,94,84,0.00,40.00,19,14,24,0.00
2013-5-28,76,68,61,70,65,60,96,91,81,0.00,40.00,26,12,39,0.00
2013-5-29,83,72,62,70,65,59,96,81,59,0.00,40.00,23,11,32,0.00
2013-5-30,83,72,62,70,66,60,97,83,57,0.00,40.00,34,16,52,0.00
2013-5-31,73,67,61,69,64,60,97,89,70,0.00,40.00,25,13,32,0.00
2013-6-1,75,67,61,68,62,-100,95,85,66,0.00,40.00,24,12,33,0.00
2013-6-2,63,58,50,60,50,43,96,77,61,0.00,40.00,21,12,28,0.00
2013-6-3,71,58,44,52,45,41,97,67,39,0.00,40.00,10,3,14,0.00
2013-6-4,75,62,48,51,47,45,93,62,37,0.00,40.00,20,10,26,0.00
2013-6-5,69,61,56,60,53,46,90,74,58,0.00,40.00,16,9,21,0.00
2013-6-6,71,60,54,59,54,49,95,79,58,0.00,40.00,17,10,21,0.00
2013-6-7,73,61,54,54,49,42,87,67,38,0.00,40.00,17,9,24,0.00
2013-6-8,77,64,46,49,44,40,94,52,30,0.00,40.00,15,5,21,0.00
2013-6-9,82,69,56,65,55,43,98,64,38,0.00,40.00,28,14,35,0.00
2013-6-10,80,66,59,66,61,58,97,84,49,0.00,40.00,11,5,16,0.00
2013-7-10,80,72,65,62,60,58,86,67,52,0.00,40.00,14,6,19,0.00
2013-7-11,82,69,59,63,57,52,96,70,37,0.00,40.00,14,4,21,0.00
2013-7-12,86,70,54,61,54,49,93,62,33,0.00,40.00,8,2,10,0.00
2013-7-13,84,72,58,65,59,57,96,69,40,0.00,40.00,12,7,24,0.00
2013-7-14,88,76,66,72,67,62,94,75,52,0.00,40.00,14,7,18,0.00
2013-7-15,91,78,69,75,71,68,96,80,53,0.00,40.00,11,4,15,0.00
2013-7-16,92,84,70,75,73,69,96,72,52,0.00,40.00,11,5,14,0.00
2013-7-17,92,84,73,76,73,70,94,73,48,0.00,40.00,7,3,13,0.00
2013-7-18,93,85,74,75,74,70,94,72,52,0.00,40.00,11,6,19,0.00
2013-7-19,92,84,73,74,72,67,92,69,48,0.00,40.00,20,11,32,0.00
2013-7-20,88,76,66,70,62,-100,95,66,41,0.00,40.00,9,5,18,0.00
2013-7-21,85,74,65,71,66,64,96,78,54,0.00,40.00,14,6,23,0.00
2013-7-22,87,76,63,72,66,62,96,75,47,0.00,40.00,16,4,26,0.00
2013-7-23,78,70,60,66,60,53,96,75,46,0.00,40.00,16,9,36,0.00
2013-7-24,77,64,53,57,53,50,97,69,39,0.00,40.00,11,4,18,0.00
2013-7-25,80,66,52,60,54,50,96,68,43,0.00,40.00,10,4,16,0.00
2013-7-26,73,66,60,68,62,56,97,87,66,0.00,40.00,19,9,28,0.00
2013-7-27,66,59,53,56,51,45,96,76,50,0.00,40.00,16,10,24,0.00
2013-7-28,70,60,52,53,49,46,93,70,45,0.00,40.00,16,9,26,0.00
2013-7-29,80,64,50,60,54,49,96,73,43,0.00,40.00,11,4,19,0.00
2013-7-30,68,62,56,65,61,55,97,94,80,0.00,40.00,15,8,20,0.00
2013-7-31,79,68,63,66,64,62,97,87,58,0.00,40.00,10,5,14,0.00
2013-8-1,81,69,58,62,56,50,96,69,37,0.00,40.00,17,6,28,0.00
2013-8-2,85,73,62,69,64,57,94,74,54,0.00,40.00,14,7,20,0.00
2013-8-3,80,70,60,64,56,49,94,65,36,0.00,40.00,14,5,21,0.00
2013-8-4,81,68,54,62,56,49,95,69,36,0.00,40.00,9,4,14,0.00
2013-8-5,72,64,56,65,60,54,97,89,70,0.00,40.00,21,7,29,0.00
2013-8-6,84,73,66,73,69,65,96,87,65,0.00,40.00,11,7,17,0.00
2013-8-7,88,77,66,75,69,63,96,79,47,0.00,40.00,13,7,17,0.00
2013-8-8,79,70,62,64,62,56,95,77,54,0.00,40.00,11,5,20,0.00
2013-8-9,82,70,57,68,60,51,95,74,50,0.00,40.00,11,4,19,0.00
2013-8-10,82,69,58,63,57,53,95,70,41,0.00,40.00,12,4,16,0.00
2013-8-11,81,68,52,66,58,51,97,74,45,0.00,40.00,13,4,22,0.00
2013-8-12,83,73,66,68,65,63,92,77,56,0.00,40.00,13,7,16,0.00
2013-8-13,72,61,51,62,48,-100,97,69,38,0.00,40.00,14,7,22,0.00
2013-8-14,76,59,46,56,46,-100,97,70,36,0.00,40.00,9,2,15,0.00
2013-8-21,88,76,64,69,65,63,96,72,44,0.00,40.00,16,8,22,0.00
2013-8-22,75,70,63,69,67,62,96,90,76,0.00,40.00,13,6,21,0.00
2013-8-23,82,70,59,65,58,51,96,71,40,0.00,40.00,11,5,18,0.00
2013-8-24,84,69,59,69,59,-100,95,75,55,0.00,40.00,10,7,17,0.00
2013-8-25,87,75,63,70,66,60,92,75,54,0.00,40.00,13,8,19,0.00
2013-8-26,89,77,68,75,70,64,91,79,61,0.00,40.00,11,7,16,0.00
2013-8-27,90,79,72,74,72,70,95,82,57,0.00,40.00,14,8,19,0.00
2013-10-12,70,59,51,62,48,-100,96,73,31,0.00,40.00,15,9,22,0.00
2013-10-13,65,51,39,41,36,30,90,63,28,0.00,40.00,13,4,19,0.00
2013-10-14,65,50,36,47,40,35,97,72,36,0.00,40.00,14,7,22,0.00
2013-10-15,67,54,48,60,48,41,94,79,62,0.00,40.00,19,12,27,0.00
2013-10-16,52,49,45,46,44,41,92,84,76,0.00,40.00,17,10,25,0.00
2013-10-17,57,48,39,47,41,32,97,81,39,0.00,40.00,15,7,27,0.00
2013-10-18,48,44,38,42,38,35,97,80,61,0.00,40.00,18,9,28,0.00
2013-10-31,62,57,44,61,55,41,97,95,89,0.00,40.00,23,13,32,0.00
2013-11-1,46,44,42,43,40,38,93,87,81,0.00,40.00,24,13,36,0.00
2013-11-2,47,40,35,41,33,-100,96,82,55,0.00,40.00,17,8,23,0.00
2013-11-3,52,40,26,41,32,26,97,77,45,0.00,40.00,14,6,20,0.00
2013-11-4,56,48,40,45,39,35,86,72,49,0.00,40.00,24,13,33,0.00
2013-11-5,53,50,47,51,48,45,97,93,82,0.00,40.00,21,10,32,0.00
2013-11-6,56,46,33,55,42,25,97,88,67,0.00,40.00,26,16,34,0.00
2013-12-22,33,28,20,32,26,18,97,93,88,0.00,40.00,1,1,4,0.00
2013-12-23,20,5,-4,17,1,-9,91,81,74,0.00,40.00,3,1,4,0.00
2013-12-24,17,3,-8,12,-3,-12,84,77,66,0.00,40.00,3,1,4,0.00
2013-12-25,25,22,17,24,19,12,95,88,75,0.00,40.00,23,6,29,0.00
2013-12-26,34,24,13,29,19,8,92,81,72,0.00,40.00,23,12,30,0.00
2013-12-27,37,30,21,30,26,20,96,84,68,0.00,40.00,19,10,26,0.00
2013-12-28,45,38,33,34,31,29,89,77,58,0.00,40.00,16,10,20,0.00